TimeCDT,TemperatureF,Dew PointF,Humidity,Sea Level PressureIn,VisibilityMPH,Wind Direction,Wind SpeedMPH,Gust SpeedMPH,PrecipitationIn,Events,Conditions,WindDirDegrees,DateUTC
12:15 AM,57.2,54.0,89,30.15,10.0,Calm,Calm,-,N/A,,Clear,0,2013-08-16 05:15:00
12:55 AM,54.7,52.3,92,30.16,10.0,Calm,Calm,-,N/A,,Scattered Clouds,0,2013-08-16 05:55:00
1:15 AM,56.5,54.0,91,30.16,10.0,Calm,Calm,-,N/A,,Mostly Cloudy,0,2013-08-16 06:15:00
1:35 AM,56.5,53.6,90,30.15,10.0,Calm,Calm,-,N/A,,Scattered Clouds,0,2013-08-16 06:35:00
1:55 AM,56.5,53.4,89,30.15,10.0,Calm,Calm,-,N/A,,Scattered Clouds,0,2013-08-16 06:55:00
2:15 AM,56.7,53.4,89,30.15,10.0,Calm,Calm,-,N/A,,Overcast,0,2013-08-16 07:15:00
2:35 AM,57.4,54.1,89,30.15,10.0,Calm,Calm,-,N/A,,Overcast,0,2013-08-16 07:35:00
2:55 AM,59.9,55.0,84,30.14,10.0,Calm,Calm,-,N/A,,Mostly Cloudy,0,2013-08-16 07:55:00
3:15 AM,56.1,53.6,91,30.14,10.0,Calm,Calm,-,N/A,,Scattered Clouds,0,2013-08-16 08:15:00
3:35 AM,56.5,54.5,93,30.14,10.0,Calm,Calm,-,N/A,,Clear,0,2013-08-16 08:35:00
3:55 AM,54.5,52.7,94,30.15,10.0,Calm,Calm,-,N/A,,Clear,0,2013-08-16 08:55:00
4:15 AM,55.4,53.6,94,30.15,10.0,Calm,Calm,-,N/A,,Clear,0,2013-08-16 09:15:00
4:35 AM,54.7,53.4,96,30.16,10.0,Calm,Calm,-,N/A,,Clear,0,2013-08-16 09:35:00
4:55 AM,52.9,51.3,94,30.16,10.0,Calm,Calm,-,N/A,,Clear,0,2013-08-16 09:55:00
5:15 AM,51.8,50.4,95,30.17,3.0,Calm,Calm,-,N/A,,Clear,0,2013-08-16 10:15:00
5:35 AM,52.2,50.9,95,30.17,0.5,Calm,Calm,-,N/A,,Unknown,0,2013-08-16 10:35:00
5:55 AM,51.8,50.5,95,30.17,0.5,Calm,Calm,-,N/A,,Unknown,0,2013-08-16 10:55:00
6:15 AM,51.8,50.5,95,30.18,2.0,Calm,Calm,-,N/A,,Clear,0,2013-08-16 11:15:00
6:35 AM,51.1,50.0,96,30.18,0.5,Calm,Calm,-,N/A,,Unknown,0,2013-08-16 11:35:00
6:55 AM,53.2,52.0,95,30.19,10.0,Calm,Calm,-,N/A,,Clear,0,2013-08-16 11:55:00
7:15 AM,55.9,54.9,96,30.19,7.0,Calm,Calm,-,N/A,,Clear,0,2013-08-16 12:15:00
7:35 AM,59.0,57.9,96,30.19,10.0,Calm,Calm,-,N/A,,Clear,0,2013-08-16 12:35:00
7:55 AM,61.9,59.0,90,30.20,10.0,Calm,Calm,-,N/A,,Clear,0,2013-08-16 12:55:00
8:15 AM,64.4,59.4,84,30.20,10.0,Calm,Calm,-,N/A,,Clear,0,2013-08-16 13:15:00
8:35 AM,67.5,55.9,66,30.20,10.0,Calm,Calm,-,N/A,,Clear,0,2013-08-16 13:35:00
8:55 AM,69.1,55.2,61,30.20,10.0,Calm,Calm,-,N/A,,Clear,0,2013-08-16 13:55:00
9:15 AM,70.7,54.1,56,30.20,10.0,North,3.5,-,N/A,,Clear,360,2013-08-16 14:15:00
9:35 AM,71.6,53.6,53,30.20,10.0,NNW,3.5,-,N/A,,Clear,340,2013-08-16 14:35:00
9:55 AM,72.7,52.9,50,30.20,10.0,North,3.5,-,N/A,,Clear,350,2013-08-16 14:55:00
10:15 AM,73.8,52.7,48,30.20,10.0,North,3.5,-,N/A,,Clear,360,2013-08-16 15:15:00
10:35 AM,75.2,52.7,45,30.20,10.0,Calm,Calm,-,N/A,,Clear,0,2013-08-16 15:35:00
10:55 AM,75.9,52.7,44,30.20,10.0,NNE,3.5,-,N/A,,Clear,30,2013-08-16 15:55:00
11:15 AM,76.8,50.7,40,30.20,10.0,ENE,4.6,-,N/A,,Clear,60,2013-08-16 16:15:00
11:35 AM,77.4,48.7,36,30.20,10.0,Calm,Calm,-,N/A,,Clear,0,2013-08-16 16:35:00
11:55 AM,77.9,47.7,34,30.20,10.0,Calm,Calm,-,N/A,,Clear,0,2013-08-16 16:55:00
12:15 PM,77.9,48.0,35,30.20,10.0,North,4.6,-,N/A,,Clear,360,2013-08-16 17:15:00
12:35 PM,79.2,45.1,30,30.20,10.0,ENE,3.5,-,N/A,,Clear,70,2013-08-16 17:35:00
12:55 PM,79.3,46.2,31,30.20,10.0,Calm,Calm,-,N/A,,Scattered Clouds,0,2013-08-16 17:55:00
1:15 PM,80.6,44.1,27,30.19,10.0,Calm,Calm,-,N/A,,Scattered Clouds,0,2013-08-16 18:15:00
1:35 PM,77.9,48.0,35,30.19,10.0,NNW,4.6,-,N/A,,Scattered Clouds,340,2013-08-16 18:35:00
1:55 PM,77.9,46.2,33,30.19,10.0,Calm,Calm,-,N/A,,Scattered Clouds,0,2013-08-16 18:55:00
2:15 PM,80.1,45.7,30,30.19,10.0,ENE,3.5,-,N/A,,Overcast,70,2013-08-16 19:15:00
2:35 PM,79.0,44.6,30,30.18,10.0,Calm,Calm,-,N/A,,Mostly Cloudy,0,2013-08-16 19:35:00
2:55 PM,81.0,43.0,26,30.18,10.0,Calm,Calm,-,N/A,,Overcast,0,2013-08-16 19:55:00
3:15 PM,79.9,46.4,31,30.18,10.0,NE,4.6,-,N/A,,Overcast,40,2013-08-16 20:15:00
3:35 PM,80.4,45.7,29,30.17,10.0,NNE,3.5,-,N/A,,Mostly Cloudy,30,2013-08-16 20:35:00
3:55 PM,80.4,42.1,26,30.17,10.0,ENE,3.5,-,N/A,,Scattered Clouds,60,2013-08-16 20:55:00
4:15 PM,81.3,43.5,26,30.17,10.0,NW,4.6,-,N/A,,Scattered Clouds,310,2013-08-16 21:15:00
4:35 PM,80.8,42.3,25,30.17,10.0,NNW,8.1,-,N/A,,Clear,340,2013-08-16 21:35:00
4:55 PM,81.0,43.3,26,30.17,10.0,WNW,3.5,-,N/A,,Clear,290,2013-08-16 21:55:00
5:15 PM,80.8,44.6,28,30.17,10.0,NNW,3.5,-,N/A,,Clear,340,2013-08-16 22:15:00
5:35 PM,80.1,43.7,28,30.17,10.0,Calm,Calm,-,N/A,,Clear,0,2013-08-16 22:35:00
5:55 PM,80.1,45.5,30,30.17,10.0,Calm,Calm,-,N/A,,Clear,0,2013-08-16 22:55:00
6:15 PM,79.2,50.4,36,30.17,10.0,Calm,Calm,-,N/A,,Clear,0,2013-08-16 23:15:00
6:35 PM,77.5,51.4,40,30.17,10.0,Calm,Calm,-,N/A,,Clear,0,2013-08-16 23:35:00
6:55 PM,76.3,52.5,43,30.17,10.0,NNE,3.5,-,N/A,,Clear,30,2013-08-16 23:55:00
7:15 PM,74.3,53.2,48,30.17,10.0,Calm,Calm,-,N/A,,Clear,0,2013-08-17 00:15:00
7:35 PM,71.6,56.3,58,30.18,10.0,Calm,Calm,-,N/A,,Clear,0,2013-08-17 00:35:00
7:55 PM,70.7,58.8,66,30.18,10.0,Calm,Calm,-,N/A,,Clear,0,2013-08-17 00:55:00
8:15 PM,66.9,58.5,74,30.18,10.0,Calm,Calm,-,N/A,,Clear,0,2013-08-17 01:15:00
8:35 PM,64.8,57.6,77,30.19,10.0,Calm,Calm,-,N/A,,Clear,0,2013-08-17 01:35:00
8:55 PM,62.1,58.3,87,30.20,10.0,Calm,Calm,-,N/A,,Clear,0,2013-08-17 01:55:00
9:15 PM,60.8,58.1,91,30.20,10.0,Calm,Calm,-,N/A,,Clear,0,2013-08-17 02:15:00
9:35 PM,61.2,58.5,91,30.20,10.0,Calm,Calm,-,N/A,,Clear,0,2013-08-17 02:35:00
9:55 PM,60.4,57.7,91,30.20,10.0,Calm,Calm,-,N/A,,Clear,0,2013-08-17 02:55:00
10:15 PM,59.2,57.2,93,30.20,10.0,Calm,Calm,-,N/A,,Clear,0,2013-08-17 03:15:00
10:35 PM,59.4,56.1,89,30.21,10.0,Calm,Calm,-,N/A,,Clear,0,2013-08-17 03:35:00
10:55 PM,57.4,54.5,90,30.21,10.0,Calm,Calm,-,N/A,,Clear,0,2013-08-17 03:55:00
11:15 PM,57.0,54.9,92,30.21,10.0,Calm,Calm,-,N/A,,Clear,0,2013-08-17 04:15:00
11:35 PM,57.0,54.9,92,30.21,10.0,Calm,Calm,-,N/A,,Clear,0,2013-08-17 04:35:00
11:55 PM,56.1,54.1,93,30.21,10.0,NW,3.5,-,N/A,,Clear,310,2013-08-17 04:55:00